Regional Weather Roundup
Issued by NWS Memphis, TN

Home | Current Version | Previous Version | Text Only | Print | Product List | Glossary On
Versions: 1 2 3 4 5 6 7 8 9 10 11 12 13 14 15 16 17 18 19 20 21 22 23 24 25 26 27 28 29 30 31 32 33 34 35 36 37 38 39 40 41 42 43 44 45 46 47 48 49 50
000
ASUS44 KMEG 072210
RWRMEG
MEMPHIS CWA HOURLY WEATHER ROUNDUP
NATIONAL WEATHER SERVICE MEMPHIS TN
400 PM CST WED DEC 07 2016

...WEST TENNESSEE...

CITY           SKY/WX    TMP DP  RH WIND       PRES   REMARKS
MEMPHIS INTL   CLOUDY    45  34  65 NE8       30.18R
NWS MEMPHIS      N/A     44 N/A N/A MISG        N/A
JACKSON        PTCLDY    45  32  60 N8        30.16S
BOLIVAR        CLOUDY    43  34  70 NW3       30.17R
LEXINGTON      CLEAR     45  28  53 N5        30.15R
DYERSBURG      PTCLDY    45  27  49 E6        30.18R
UNION CITY     CLOUDY    43  27  52 CALM      30.17R
PARIS          CLEAR     41  25  52 CALM      30.16S
HUNTINGDON     CLEAR     45  28  53 VRB3      30.15S


...EASTERN ARKANSAS...

CITY           SKY/WX    TMP DP  RH WIND       PRES   REMARKS
JONESBORO      CLOUDY    42  29  59 NE6       30.20R
WEST MEMPHIS   CLOUDY    44  34  67 N8        30.18R
BATESVILLE     CLOUDY    39  23  52 CALM      30.22R
NEWPORT        CLOUDY    41  29  62 N7        30.22R
WALNUT RIDGE   CLOUDY    41  21  45 N8        30.21R
BLYTHEVILLE    CLOUDY    45  33  63 N8        30.20R
NW BLYTHEVILLE CLOUDY    43  30  61 N7        30.20R
SEARCY         CLOUDY    42  31  64 N7        30.22R
STUTTGART      CLOUDY    43  32  65 N9        30.18S
PINE BLUFF     CLOUDY    44  38  79 NE8       30.18R
MONTICELLO     CLOUDY    47  40  76 NE3       30.15R


...NORTH MISSISSIPPI...

CITY           SKY/WX    TMP DP  RH WIND       PRES   REMARKS
TUPELO         CLOUDY    47  35  63 NW3       30.15R
OXFORD         CLOUDY    45  36  70 N3        30.18R
BATESVILLE     MOCLDY    46  37  68 N3        30.18R
OLIVE BRANCH   CLOUDY   N/A N/A N/A NE9       30.16R
TUNICA         CLOUDY    45  36  70 N7        30.19R
CLARKSDALE     CLOUDY    46  39  76 N9        30.18R
CORINTH        CLOUDY    45  32  61 CALM      30.16R
GREENWOOD      PTCLDY    51  39  63 NW7       30.14R
COLUMBUS       CLOUDY    49  41  72 W7        30.14R
STARKVILLE     CLOUDY    48  41  76 N5        30.15S
GOLDEN TRIANGL CLOUDY    50  39  66 N9        30.10R


...SOUTHEAST MISSOURI...

CITY           SKY/WX    TMP DP  RH WIND       PRES   REMARKS
KENNETT        CLOUDY    43  28  56 N8        30.20R
WEST PLAINS    CLOUDY    37  16  42 N3        30.22R
POPLAR BLUFF   CLOUDY    41  22  46 N8        30.21R
CAPE GIRARDEAU CLOUDY    39  23  52 N9        30.22R WCI  33


...NORTHWEST ALABAMA...

CITY           SKY/WX    TMP DP  RH WIND       PRES   REMARKS
MUSCLE SHOALS  CLOUDY    45  33  63 NW7       30.15R


...MIDDLE TENNESSEE...

CITY           SKY/WX    TMP DP  RH WIND       PRES   REMARKS
NASHVILLE      MOCLDY    46  31  55 N8        30.14S
CLARKSVILLE    PTCLDY    45  24  43 N5        30.16R
COLUMBIA       PTCLDY    45  37  76 CALM      30.12S


...WESTERN KENTUCKY...

CITY           SKY/WX    TMP DP  RH WIND       PRES   REMARKS
PADUCAH        CLOUDY    43  20  39 NW7       30.19R
FORT CAMPBELL  PTCLDY    44  20  38 N3        30.16R


...CENTRAL ARKANSAS...

CITY           SKY/WX    TMP DP  RH WIND       PRES   REMARKS
LITTLE ROCK    CLOUDY    41  33  73 NE9       30.19R


SKY/WX REPORTED AS FAIR MEANS FEW OR NO CLOUDS BELOW
12 THOUSAND FEET.





USA.gov is the U.S. government's official web portal to all federal, state and local government web resources and services.